Mount Shasta, CA

6:25 PM PDT on March 26, 2017 (GMT -0700)
Mount Shasta

Weather History for KMHS - December, 2013

Change the Weather History Date:

Monday, December 23, 2013

  Actual Average Record
Temperature  
Mean Temperature 42 °F 35 °F  
Max Temperature 55 °F 44 °F 62 °F (1960)
Min Temperature 28 °F 26 °F -1 °F (1990)
Degree Days  
Heating Degree Days 23 30  
Month to date heating degree days 737 682  
Since 1 July heating degree days 1974 2079  
Cooling Degree Days 0 0  
Month to date cooling degree days 0 0  
Year to date cooling degree days 474 288  
Moisture  
Dew Point 30 °F    
Average Humidity 66    
Maximum Humidity 85    
Minimum Humidity 43    
Precipitation  
Precipitation 0.00 in 0.27 in 1.91 in (1940)
Month to date precipitation 0.24 5.79  
Year to date precipitation 10.00 41.15  
Sea Level Pressure  
Sea Level Pressure 30.49 in    
Wind  
Wind Speed 4 mph (North)    
Max Wind Speed 12 mph    
Max Gust Speed 21 mph    
Visibility 10 miles    
Events      
T = Trace of Precipitation, MM = Missing Value Source: NWS Daily Summary

Daily Weather History Graph

Daily Weather History Graph

Search for Another Location

Airport or City:

Trip Planner

Search our weather history database for the weather conditions in past years. The results will help you decide how hot, cold, wet, or windy it might be!

Date:

Astronomy

Dec. 23, 2013 Rise Set
Actual Time 7:32 AM PST 4:44 PM PST
Civil Twilight 7:01 AM PST 5:15 PM PST
Nautical Twilight 6:26 AM PST 5:50 PM PST
Astronomical Twilight 5:52 AM PST 6:24 PM PST
Moon 11:03 PM PST (12/23) 10:57 AM PST (12/23)
Length of Visible Light 10h 14m
Length of Day
9h 11m
Waning Gibbous, 67% of the Moon is Illuminated
Dec 23
Waning Gibbous
Dec 25
Last Quarter
Jan 1
New
Jan 7
First Quarter
Jan 15
Full

Hourly Weather History & Observations

Time (PST) Temp. Windchill Dew Point Humidity Pressure Visibility Wind Dir Wind Speed Gust Speed Precip Events Conditions
12:56 AM 30.0 °F 26.5 °F 24.1 °F 79% 30.46 in 7.0 mi NE 3.5 mph - N/A   Clear
1:56 AM 28.0 °F - 24.1 °F 85% 30.46 in 10.0 mi Calm Calm - N/A   Clear
2:56 AM 28.9 °F - 23.0 °F 78% 30.47 in 8.0 mi Calm Calm - N/A   Clear
3:56 AM 28.9 °F - 23.0 °F 78% 30.47 in 10.0 mi Calm Calm - N/A   Partly Cloudy
4:56 AM 30.0 °F 25.2 °F 23.0 °F 75% 30.48 in 10.0 mi NE 4.6 mph - N/A   Clear
5:56 AM 28.0 °F 24.2 °F 21.9 °F 78% 30.49 in 10.0 mi NNE 3.5 mph - N/A   Clear
6:56 AM 28.9 °F 25.2 °F 23.0 °F 78% 30.50 in 10.0 mi ENE 3.5 mph - N/A   Clear
7:56 AM 30.0 °F 26.5 °F 21.9 °F 72% 30.52 in 8.0 mi NE 3.5 mph - N/A   Clear
8:56 AM 34.0 °F - 25.0 °F 70% 30.54 in 8.0 mi Calm Calm - N/A   Clear
9:56 AM 45.0 °F 42.6 °F 36.0 °F 71% 30.52 in 10.0 mi NNW 4.6 mph - N/A   Clear
10:56 AM 46.0 °F 41.9 °F 35.1 °F 66% 30.53 in 10.0 mi NW 8.1 mph - N/A   Clear
11:56 AM 48.0 °F - 36.0 °F 63% 30.51 in 10.0 mi Calm Calm - N/A   Clear
12:56 PM 53.1 °F - 35.1 °F 50% 30.48 in 10.0 mi WNW 6.9 mph 17.3 mph N/A   Scattered Clouds
1:56 PM 55.0 °F - 34.0 °F 45% 30.47 in 10.0 mi NW 9.2 mph 19.6 mph N/A   Mostly Cloudy
2:56 PM 53.1 °F - 34.0 °F 48% 30.48 in 10.0 mi Variable 6.9 mph - N/A   Overcast
3:56 PM 51.1 °F - 34.0 °F 52% 30.49 in 10.0 mi NW 6.9 mph - N/A   Clear
4:56 PM 50.0 °F - 30.9 °F 48% 30.49 in 10.0 mi Variable 3.5 mph - N/A   Partly Cloudy
5:56 PM 48.9 °F - 33.1 °F 54% 30.50 in 10.0 mi Variable 4.6 mph - N/A   Scattered Clouds
6:56 PM 46.9 °F - 33.1 °F 59% 30.50 in 10.0 mi Variable 3.5 mph - N/A   Scattered Clouds
7:56 PM 46.0 °F 44.8 °F 33.1 °F 61% 30.51 in 10.0 mi NNW 3.5 mph - N/A   Scattered Clouds
8:56 PM 41.0 °F 39.0 °F 32.0 °F 70% 30.50 in 9.0 mi NE 3.5 mph - N/A   Clear
9:56 PM 44.1 °F 40.1 °F 33.1 °F 65% 30.48 in 10.0 mi Variable 6.9 mph - N/A   Clear
10:56 PM 43.0 °F 39.5 °F 33.1 °F 68% 30.48 in 10.0 mi Variable 5.8 mph - N/A   Clear
11:56 PM 41.0 °F 39.0 °F 33.1 °F 73% 30.48 in 10.0 mi Variable 3.5 mph - N/A   Clear